| time (UTC) | temp F | wind direction | speed MPH | gust MPH | rain 1hr in | rain 24hr in | rain mn in | humidity % | barometer mb |
| 20260508034504 | 47 | 207 | 2.0 | 10.0 | 0.00 | 0.02 | 0.01 | 68 | 1013.3 |
| 20260508033005 | 47 | 323 | 2.0 | 8.0 | 0.00 | 0.02 | 0.01 | 68 | 1013.5 |
| 20260508031459 | 47 | 337 | 2.0 | 10.0 | 0.00 | 0.02 | 0.01 | 69 | 1013.5 |
| 20260508030000 | 48 | 288 | 1.0 | 7.0 | 0.00 | 0.16 | 0.01 | 69 | 1013.4 |
| 20260508024459 | 48 | 252 | 0.0 | 8.0 | 0.00 | 0.16 | 0.01 | 69 | 1013.3 |
| 20260508023007 | 48 | 311 | 2.0 | 7.0 | 0.00 | 0.16 | 0.01 | 68 | 1013.3 |
| 20260508021502 | 48 | 340 | 1.0 | 7.0 | 0.00 | 0.16 | 0.01 | 70 | 1013.0 |
| 20260508020000 | 49 | 319 | 2.0 | 7.0 | 0.00 | 0.17 | 0.01 | 70 | 1012.5 |
| 20260508014458 | 49 | 319 | 3.0 | 9.0 | 0.00 | 0.17 | 0.01 | 69 | 1012.3 |
| 20260508013000 | 49 | 311 | 3.0 | 8.0 | 0.00 | 0.17 | 0.01 | 70 | 1012.1 |
| 20260508011459 | 49 | 318 | 2.0 | 8.0 | 0.00 | 0.17 | 0.01 | 69 | 1012.0 |
| 20260508010002 | 50 | 309 | 4.0 | 8.0 | 0.00 | 0.17 | 0.01 | 68 | 1011.9 |
| 20260508004458 | 50 | 200 | 3.0 | 9.0 | 0.00 | 0.17 | 0.01 | 67 | 1011.9 |
| 20260508003000 | 50 | 207 | 2.0 | 8.0 | 0.00 | 0.17 | 0.01 | 68 | 1011.8 |
| 20260507234500 | 52 | 296 | 1.0 | 8.0 | 0.00 | 0.17 | 0.01 | 66 | 1011.5 |
| 20260507233003 | 53 | 217 | 2.0 | 8.0 | 0.00 | 0.17 | 0.01 | 67 | 1011.3 |
| 20260507231500 | 53 | 314 | 4.0 | 10.0 | 0.00 | 0.17 | 0.01 | 64 | 1011.0 |
| 20260507224459 | 56 | 346 | 1.0 | 5.0 | 0.00 | 0.17 | 0.01 | 68 | 1010.6 |
| 20260507222959 | 56 | 333 | 1.0 | 9.0 | 0.00 | 0.17 | 0.01 | 66 | 1010.5 |
| 20260507221458 | 58 | 318 | 1.0 | 6.0 | 0.00 | 0.17 | 0.01 | 67 | 1010.4 |
| 20260507220003 | 58 | 210 | 1.0 | 6.0 | 0.00 | 0.17 | 0.01 | 66 | 1010.3 |
| 20260507214458 | 56 | 234 | 1.0 | 8.0 | 0.00 | 0.17 | 0.01 | 71 | 1010.1 |
| 20260507213001 | 54 | 58 | 2.0 | 6.0 | 0.00 | 0.17 | 0.01 | 78 | 1010.2 |
| 20260507211501 | 54 | 158 | 1.0 | 6.0 | 0.00 | 0.17 | 0.01 | 78 | 1010.2 |
| 20260507210005 | 53 | 248 | 0.0 | 7.0 | 0.00 | 0.17 | 0.01 | 79 | 1009.9 |
| 20260507204501 | 54 | 312 | 1.0 | 6.0 | 0.00 | 0.17 | 0.01 | 80 | 1009.7 |
| 20260507203004 | 53 | 28 | 0.0 | 4.0 | 0.00 | 0.17 | 0.01 | 85 | 1009.8 |
| 20260507201500 | 52 | 339 | 1.0 | 3.0 | 0.00 | 0.17 | 0.01 | 83 | 1009.7 |
| 20260507200000 | 52 | 325 | 0.0 | 2.0 | 0.00 | 0.17 | 0.01 | 85 | 1010.0 |
| 20260507194501 | 51 | 310 | 0.0 | 3.0 | 0.00 | 0.17 | 0.01 | 87 | 1010.4 |
| 20260507193004 | 50 | 319 | 1.0 | 3.0 | 0.00 | 0.17 | 0.01 | 88 | 1010.6 |
| 20260507191501 | 50 | 347 | 0.0 | 5.0 | 0.00 | 0.17 | 0.01 | 87 | 1010.7 |
| 20260507190010 | 50 | 151 | 0.0 | 4.0 | 0.00 | 0.17 | 0.01 | 89 | 1010.9 |
| 20260507184502 | 50 | 317 | 2.0 | 7.0 | 0.00 | 0.17 | 0.01 | 89 | 1011.1 |
| 20260507183001 | 50 | 314 | 1.0 | 5.0 | 0.00 | 0.17 | 0.01 | 90 | 1011.0 |
| 20260507181502 | 49 | 240 | 0.0 | 3.0 | 0.00 | 0.17 | 0.01 | 91 | 1011.1 |
| 20260507180008 | 48 | 356 | 1.0 | 6.0 | 0.00 | 0.17 | 0.01 | 92 | 1011.3 |
| 20260507174502 | 48 | 326 | 0.0 | 4.0 | 0.00 | 0.18 | 0.01 | 93 | 1011.1 |
| 20260507173005 | 48 | 304 | 0.0 | 3.0 | 0.00 | 0.18 | 0.01 | 94 | 1011.1 |
| 20260507170006 | 49 | 324 | 0.0 | 1.0 | 0.01 | 0.18 | 0.01 | 93 | 1011.6 |
| 20260507164503 | 49 | 96 | 0.0 | 4.0 | 0.01 | 0.21 | 0.01 | 93 | 1011.3 |
| 20260507163008 | 49 | 342 | 0.0 | 2.0 | 0.01 | 0.21 | 0.01 | 93 | 1011.3 |
| 20260507161501 | 49 | 25 | 0.0 | 5.0 | 0.00 | 0.20 | 0.00 | 93 | 1011.3 |
| 20260507160009 | 49 | 138 | 1.0 | 6.0 | 0.00 | 0.20 | 0.00 | 94 | 1011.4 |
| 20260507154504 | 49 | 329 | 3.0 | 6.0 | 0.00 | 0.20 | 0.00 | 94 | 1011.6 |
| 20260507151501 | 50 | 328 | 1.0 | 4.0 | 0.00 | 0.20 | 0.00 | 94 | 1011.8 |
| 20260507150000 | 50 | 317 | 1.0 | 4.0 | 0.00 | 0.20 | 0.00 | 94 | 1011.7 |
| 20260507144501 | 50 | 329 | 2.0 | 5.0 | 0.00 | 0.20 | 0.00 | 94 | 1011.5 |
| 20260507141500 | 51 | 348 | 1.0 | 6.0 | 0.00 | 0.20 | 0.00 | 94 | 1011.5 |
| 20260507140002 | 51 | 314 | 0.0 | 6.0 | 0.00 | 0.25 | 0.00 | 94 | 1011.5 |
| 20260507134500 | 51 | 311 | 0.0 | 4.0 | 0.00 | 0.25 | 0.00 | 94 | 1011.6 |
| 20260507133003 | 51 | 345 | 0.0 | 5.0 | 0.00 | 0.25 | 0.00 | 94 | 1011.8 |
| 20260507131459 | 52 | 314 | 2.0 | 3.0 | 0.00 | 0.25 | 0.00 | 94 | 1011.8 |
| 20260507130003 | 52 | 11 | 0.0 | 3.0 | 0.00 | 0.25 | 0.00 | 94 | 1012.1 |
| 20260507124459 | 52 | 318 | 0.0 | 3.0 | 0.00 | 0.26 | 0.00 | 95 | 1011.8 |
| 20260507123003 | 51 | 323 | 1.0 | 3.0 | 0.00 | 0.26 | 0.00 | 95 | 1011.9 |
| 20260507121500 | 52 | 338 | 1.0 | 4.0 | 0.00 | 0.26 | 0.00 | 95 | 1011.8 |
| 20260507120005 | 52 | 329 | 1.0 | 3.0 | 0.00 | 0.26 | 0.00 | 94 | 1011.9 |
| 20260507113004 | 52 | 297 | 0.0 | 1.0 | 0.00 | 0.26 | 0.00 | 93 | 1011.7 |
| 20260507111459 | 52 | 132 | 0.0 | 1.0 | 0.00 | 0.26 | 0.00 | 93 | 1011.7 |
| 20260507110002 | 52 | 26 | 0.0 | 1.0 | 0.00 | 0.26 | 0.00 | 93 | 1011.4 |
| 20260507101501 | 53 | 210 | 1.0 | 8.0 | 0.00 | 0.26 | 0.00 | 92 | 1011.2 |
| 20260507100008 | 53 | 305 | 0.0 | 5.0 | 0.00 | 0.26 | 0.00 | 92 | 1011.3 |
| 20260507094500 | 54 | 223 | 0.0 | 3.0 | 0.00 | 0.26 | 0.00 | 91 | 1011.5 |
| 20260507093000 | 54 | 23 | 0.0 | 0.0 | 0.00 | 0.26 | 0.00 | 91 | 1011.2 |
| 20260507091500 | 54 | 25 | 0.0 | 0.0 | 0.00 | 0.26 | 0.00 | 91 | 1011.5 |
| 20260507084501 | 54 | 235 | 0.0 | 0.0 | 0.00 | 0.26 | 0.00 | 92 | 1011.2 |
| 20260507081502 | 55 | 233 | 0.0 | 0.0 | 0.00 | 0.26 | 0.00 | 91 | 1011.4 |
| 20260507080000 | 55 | 177 | 0.0 | 0.0 | 0.00 | 0.26 | 0.00 | 91 | 1011.6 |
| 20260507074459 | 55 | 209 | 0.0 | 0.0 | 0.00 | 0.26 | 0.00 | 91 | 1011.5 |
| 20260507073001 | 55 | 230 | 0.0 | 1.0 | 0.00 | 0.26 | 0.00 | 91 | 1011.6 |
| 20260507071500 | 56 | 52 | 0.0 | 6.0 | 0.00 | 0.26 | 0.00 | 91 | 1011.4 |
| 20260507065959 | 57 | 336 | 1.0 | 5.0 | 0.00 | 0.26 | 0.00 | 92 | 1011.3 |
| 20260507064500 | 57 | 259 | 0.0 | 1.0 | 0.00 | 0.26 | 0.00 | 90 | 1011.4 |
| 20260507063000 | 57 | 207 | 0.0 | 2.0 | 0.00 | 0.26 | 0.00 | 90 | 1011.8 |
| 20260507061459 | 57 | 114 | 0.0 | 1.0 | 0.00 | 0.26 | 0.00 | 89 | 1011.4 |
| 20260507060002 | 57 | 30 | 0.0 | 3.0 | 0.00 | 0.26 | 0.00 | 89 | 1011.4 |
| 20260507054459 | 58 | 78 | 1.0 | 3.0 | 0.00 | 0.26 | 0.00 | 88 | 1011.6 |
| 20260507053000 | 58 | 65 | 1.0 | 4.0 | 0.00 | 0.26 | 0.00 | 89 | 1011.7 |
| 20260507051500 | 58 | 80 | 1.0 | 4.0 | 0.00 | 0.26 | 0.00 | 91 | 1011.8 |
| 20260507045959 | 58 | 191 | 2.0 | 5.0 | 0.00 | 0.26 | 0.00 | 92 | 1011.8 |
| 20260507044459 | 58 | 321 | 1.0 | 3.0 | 0.00 | 0.26 | 0.00 | 92 | 1011.5 |
| 20260507042959 | 58 | 168 | 0.0 | 3.0 | 0.00 | 0.26 | 0.00 | 93 | 1011.5 |
| 20260507041500 | 58 | 134 | 0.0 | 2.0 | 0.01 | 0.26 | 0.00 | 93 | 1011.7 |
| 20260507040006 | 58 | 176 | 0.0 | 2.0 | 0.01 | 0.26 | 0.26 | 92 | 1011.9 |